| time (UTC) | temp C | wind direction | speed KPH | gust KPH | rain 1hr cm | rain 24hr cm | rain mn cm | humidity % | barometer mb |
| 20260509134548 | 24 | 0 | 0.0 | 3.2 | 0.00 | 0.00 | 0.00 | 92 | 1012.0 |
| 20260509133046 | 24 | 69 | 0.0 | 3.2 | 0.00 | 0.00 | 0.00 | 92 | 1012.0 |
| 20260509131538 | 24 | 69 | 0.0 | 3.2 | 0.00 | 0.00 | 0.00 | 92 | 1012.0 |
| 20260509130051 | 24 | 69 | 0.0 | 1.6 | 0.00 | 0.00 | 0.00 | 92 | 1011.9 |
| 20260509124552 | 24 | 0 | 0.0 | 3.2 | 0.00 | 0.00 | 0.00 | 92 | 1011.9 |
| 20260509123040 | 24 | 0 | 0.0 | 1.6 | 0.00 | 0.00 | 0.00 | 91 | 1011.7 |
| 20260509121539 | 25 | 74 | 0.0 | 3.2 | 0.00 | 0.00 | 0.00 | 90 | 1011.5 |
| 20260509120047 | 25 | 66 | 0.0 | 4.8 | 0.00 | 0.00 | 0.00 | 89 | 1011.3 |
| 20260509114553 | 25 | 75 | 1.6 | 3.2 | 0.00 | 0.00 | 0.00 | 91 | 1011.2 |
| 20260509113053 | 25 | 12 | 0.0 | 3.2 | 0.00 | 0.00 | 0.00 | 91 | 1011.1 |
| 20260509111542 | 25 | 0 | 0.0 | 1.6 | 0.00 | 0.00 | 0.00 | 91 | 1011.1 |
| 20260509110041 | 26 | 0 | 0.0 | 0.0 | 0.00 | 0.00 | 0.00 | 91 | 1011.1 |
| 20260509104545 | 26 | 0 | 0.0 | 3.2 | 0.00 | 0.00 | 0.00 | 91 | 1010.6 |
| 20260509103045 | 26 | 0 | 0.0 | 1.6 | 0.00 | 0.00 | 0.00 | 90 | 1010.3 |
| 20260509101559 | 27 | 0 | 0.0 | 3.2 | 0.00 | 0.00 | 0.00 | 87 | 1010.0 |
| 20260509100042 | 27 | 0 | 0.0 | 3.2 | 0.00 | 0.00 | 0.00 | 86 | 1009.8 |
| 20260509094545 | 28 | 51 | 1.6 | 3.2 | 0.00 | 0.00 | 0.00 | 85 | 1009.7 |
| 20260509093049 | 28 | 144 | 0.0 | 3.2 | 0.00 | 0.00 | 0.00 | 82 | 1009.7 |
| 20260509091542 | 29 | 0 | 0.0 | 3.2 | 0.00 | 0.00 | 0.00 | 81 | 1009.5 |
| 20260509090057 | 29 | 143 | 0.0 | 3.2 | 0.00 | 0.00 | 0.00 | 81 | 1009.3 |
| 20260509084548 | 29 | 36 | 0.0 | 3.2 | 0.00 | 0.00 | 0.00 | 79 | 1009.2 |
| 20260509083056 | 29 | 0 | 0.0 | 4.8 | 0.00 | 0.00 | 0.00 | 79 | 1008.8 |
| 20260509081548 | 29 | 0 | 0.0 | 3.2 | 0.00 | 0.00 | 0.00 | 78 | 1008.8 |
| 20260509080042 | 29 | 104 | 0.0 | 1.6 | 0.00 | 0.00 | 0.00 | 79 | 1008.9 |
| 20260509074551 | 28 | 0 | 0.0 | 1.6 | 0.00 | 0.08 | 0.00 | 81 | 1008.8 |
| 20260509073043 | 29 | 203 | 0.0 | 3.2 | 0.00 | 0.08 | 0.00 | 80 | 1008.7 |
| 20260509071545 | 29 | 234 | 0.0 | 4.8 | 0.00 | 0.08 | 0.00 | 78 | 1008.5 |
| 20260509070042 | 30 | 217 | 0.0 | 3.2 | 0.00 | 0.08 | 0.00 | 79 | 1008.7 |
| 20260509064542 | 30 | 0 | 0.0 | 1.6 | 0.00 | 0.08 | 0.00 | 76 | 1008.7 |
| 20260509063046 | 30 | 0 | 0.0 | 1.6 | 0.00 | 0.08 | 0.00 | 78 | 1008.8 |
| 20260509061545 | 30 | 0 | 0.0 | 4.8 | 0.00 | 0.08 | 0.00 | 77 | 1008.9 |
| 20260509060049 | 30 | 304 | 1.6 | 6.4 | 0.00 | 0.08 | 0.00 | 77 | 1008.9 |
| 20260509054541 | 30 | 0 | 0.0 | 4.8 | 0.00 | 0.08 | 0.00 | 77 | 1009.4 |
| 20260509053109 | 31 | 0 | 1.6 | 6.4 | 0.00 | 0.08 | 0.00 | 77 | 1009.5 |
| 20260509051551 | 31 | 252 | 1.6 | 6.4 | 0.00 | 0.08 | 0.00 | 75 | 1009.4 |
| 20260509050046 | 31 | 280 | 1.6 | 4.8 | 0.00 | 0.08 | 0.00 | 71 | 1009.5 |
| 20260509044606 | 31 | 302 | 0.0 | 4.8 | 0.00 | 0.08 | 0.00 | 74 | 1009.7 |
| 20260509043051 | 32 | 265 | 0.0 | 3.2 | 0.00 | 0.08 | 0.00 | 73 | 1009.9 |
| 20260509041544 | 32 | 269 | 1.6 | 8.0 | 0.00 | 0.08 | 0.00 | 70 | 1010.1 |
| 20260509040047 | 31 | 245 | 1.6 | 6.4 | 0.00 | 0.08 | 0.00 | 70 | 1010.3 |
| 20260509034547 | 31 | 0 | 3.2 | 6.4 | 0.00 | 0.08 | 0.00 | 70 | 1010.7 |
| 20260509033046 | 31 | 241 | 0.0 | 4.8 | 0.00 | 0.08 | 0.00 | 74 | 1010.9 |
| 20260509031554 | 32 | 171 | 1.6 | 6.4 | 0.00 | 0.08 | 0.00 | 69 | 1011.1 |
| 20260509030104 | 31 | 148 | 1.6 | 4.8 | 0.00 | 0.08 | 0.00 | 69 | 1011.4 |
| 20260509024545 | 31 | 256 | 1.6 | 6.4 | 0.00 | 0.08 | 0.00 | 73 | 1011.6 |
| 20260509023044 | 31 | 0 | 1.6 | 6.4 | 0.00 | 0.08 | 0.00 | 75 | 1011.7 |
| 20260509021542 | 30 | 0 | 0.0 | 3.2 | 0.00 | 0.08 | 0.00 | 76 | 1011.8 |
| 20260509020041 | 31 | 200 | 3.2 | 6.4 | 0.00 | 0.08 | 0.00 | 73 | 1011.9 |
| 20260509014546 | 31 | 13 | 1.6 | 6.4 | 0.00 | 0.08 | 0.00 | 72 | 1012.1 |
| 20260509003053 | 29 | 301 | 1.6 | 4.8 | 0.00 | 0.08 | 0.00 | 75 | 1013.1 |
| 20260509001545 | 28 | 0 | 0.0 | 6.4 | 0.00 | 0.08 | 0.00 | 80 | 1013.0 |
| 20260509000043 | 28 | 0 | 1.6 | 3.2 | 0.00 | 0.08 | 0.00 | 79 | 1012.8 |
| 20260508234542 | 27 | 229 | 0.0 | 1.6 | 0.00 | 0.08 | 0.00 | 81 | 1012.3 |
| 20260508233041 | 27 | 0 | 0.0 | 3.2 | 0.00 | 0.08 | 0.00 | 84 | 1012.2 |
| 20260508231547 | 27 | 0 | 0.0 | 3.2 | 0.00 | 0.08 | 0.00 | 86 | 1012.2 |
| 20260508230045 | 27 | 0 | 0.0 | 3.2 | 0.00 | 0.08 | 0.00 | 84 | 1012.1 |
| 20260508224559 | 26 | 0 | 0.0 | 1.6 | 0.00 | 0.08 | 0.00 | 88 | 1012.3 |
| 20260508223049 | 25 | 0 | 0.0 | 3.2 | 0.00 | 0.08 | 0.00 | 92 | 1012.1 |
| 20260508221543 | 23 | 32 | 0.0 | 1.6 | 0.00 | 0.08 | 0.00 | 94 | 1012.0 |
| 20260508220052 | 23 | 32 | 0.0 | 1.6 | 0.00 | 0.08 | 0.00 | 94 | 1011.9 |
| 20260508214545 | 23 | 32 | 1.6 | 3.2 | 0.00 | 0.08 | 0.00 | 94 | 1011.8 |
| 20260508213044 | 23 | 0 | 1.6 | 3.2 | 0.00 | 0.08 | 0.00 | 94 | 1011.7 |
| 20260508211550 | 23 | 0 | 0.0 | 1.6 | 0.00 | 0.08 | 0.00 | 94 | 1011.3 |
| 20260508210049 | 23 | 0 | 0.0 | 3.2 | 0.00 | 0.08 | 0.00 | 94 | 1011.3 |
| 20260508204548 | 23 | 0 | 1.6 | 3.2 | 0.00 | 0.08 | 0.00 | 94 | 1011.1 |
| 20260508203046 | 24 | 9 | 0.0 | 3.2 | 0.00 | 0.08 | 0.00 | 93 | 1011.1 |
| 20260508201550 | 24 | 0 | 0.0 | 3.2 | 0.00 | 0.08 | 0.00 | 94 | 1011.1 |
| 20260508200042 | 24 | 355 | 0.0 | 3.2 | 0.00 | 0.08 | 0.00 | 94 | 1010.9 |
| 20260508194541 | 24 | 0 | 0.0 | 0.0 | 0.00 | 0.08 | 0.00 | 93 | 1010.7 |
| 20260508193046 | 24 | 0 | 0.0 | 1.6 | 0.00 | 0.08 | 0.00 | 94 | 1010.6 |
| 20260508191549 | 24 | 32 | 0.0 | 3.2 | 0.00 | 0.08 | 0.00 | 94 | 1010.6 |
| 20260508190047 | 24 | 80 | 1.6 | 3.2 | 0.00 | 0.08 | 0.00 | 94 | 1010.5 |
| 20260508184546 | 24 | 134 | 0.0 | 3.2 | 0.00 | 0.08 | 0.00 | 94 | 1010.7 |
| 20260508183043 | 24 | 0 | 0.0 | 1.6 | 0.00 | 0.08 | 0.00 | 94 | 1010.5 |
| 20260508181539 | 24 | 0 | 0.0 | 1.6 | 0.00 | 0.08 | 0.00 | 93 | 1010.8 |
| 20260508180047 | 25 | 44 | 0.0 | 3.2 | 0.00 | 0.08 | 0.00 | 93 | 1010.7 |
| 20260508174555 | 25 | 0 | 0.0 | 3.2 | 0.00 | 0.08 | 0.00 | 93 | 1011.2 |
| 20260508173042 | 25 | 0 | 0.0 | 0.0 | 0.00 | 0.08 | 0.00 | 93 | 1011.2 |
| 20260508171540 | 25 | 0 | 0.0 | 0.0 | 0.00 | 0.08 | 0.00 | 93 | 1011.1 |
| 20260508170039 | 25 | 0 | 0.0 | 0.0 | 0.00 | 0.08 | 0.00 | 93 | 1011.2 |
| 20260508164552 | 25 | 0 | 0.0 | 0.0 | 0.00 | 0.08 | 0.00 | 93 | 1011.5 |
| 20260508163045 | 25 | 0 | 0.0 | 0.0 | 0.00 | 0.08 | 0.00 | 93 | 1011.9 |
| 20260508161545 | 25 | 0 | 0.0 | 0.0 | 0.00 | 0.08 | 0.00 | 93 | 1011.9 |
| 20260508160040 | 25 | 0 | 0.0 | 0.0 | 0.00 | 0.08 | 0.00 | 93 | 1012.1 |
| 20260508154606 | 25 | 0 | 0.0 | 0.0 | 0.00 | 0.08 | 0.08 | 93 | 1012.0 |
| 20260508153047 | 25 | 0 | 0.0 | 0.0 | 0.00 | 0.08 | 0.08 | 93 | 1012.0 |
| 20260508151549 | 25 | 0 | 0.0 | 0.0 | 0.00 | 0.08 | 0.08 | 92 | 1012.1 |
| 20260508150056 | 25 | 0 | 0.0 | 0.0 | 0.00 | 0.08 | 0.08 | 92 | 1012.5 |
| 20260508144541 | 25 | 0 | 0.0 | 0.0 | 0.00 | 0.08 | 0.08 | 92 | 1012.5 |
| 20260508143105 | 25 | 0 | 0.0 | 0.0 | 0.00 | 0.08 | 0.08 | 92 | 1012.4 |
| 20260508141545 | 25 | 0 | 0.0 | 0.0 | 0.00 | 0.08 | 0.08 | 92 | 1012.3 |
| 20260508140059 | 25 | 0 | 0.0 | 3.2 | 0.00 | 0.08 | 0.08 | 92 | 1012.7 |